Regional Weather Roundup
Issued by NWS San Diego, CA

Home | Current Version | Previous Version | Text Only | Print | Product List | Glossary On
Versions: 1 2 3 4 5 6 7 8 9 10 11 12 13 14 15 16 17 18 19 20 21 22 23 24 25 26 27 28 29 30 31 32 33 34 35 36 37 38 39 40 41 42 43 44 45 46 47 48 49 50
000
ASUS46 KSGX 070011
RWRSGX

SAN DIEGO HOURLY WEATHER ROUNDUP
NATIONAL WEATHER SERVICE SAN DIEGO CA
500 PM PDT MON JUL 06 2015

NOTE: "FAIR" INDICATES FEW OR NO CLOUDS BELOW 12,000 FEET WITH NO
SIGNIFICANT WEATHER AND/OR OBSTRUCTIONS TO VISIBILITY.

CAZ042-043-060-061-PZZ750-775-070100-

GREATER SAN DIEGO AREA

CITY           SKY/WX    TMP DP  RH WIND       PRES   REMARKS
LINDBERGH FLD  CLOUDY    70  60  70 W10       30.00F
NATIONAL CITY    N/A     70  63  78 NW7       29.99F
CHULA VISTA      N/A     70  64  82 W3        29.92F
IMPERIAL BEACH CLOUDY    69  61  75 W9        29.99F
BROWN FIELD    CLOUDY    69  61  75 W7        29.98F
MIRAMAR MCAS   PTSUNNY   71  59  65 W8        29.99F
MONTGOMERY FLD CLOUDY    70  60  70 NW9       29.99F

$$

NORTH SAN DIEGO COUNTY

CITY           SKY/WX    TMP DP  RH WIND       PRES   REMARKS
CAMP PENDLETON SUNNY     72  60  66 SW9G16    29.96F
OCEANSIDE AP   CLOUDY    71  60  68 W8G16     29.96F
OCEANSIDE HBR    N/A     68  64  86 W6        30.00F
VISTA            N/A     72  64  74 W3        29.95F
CARLSBAD       CLOUDY    68  61  78 SW8       29.97F
DEL MAR          N/A     69  63  82 CALM      30.00F
LA JOLLA SCRIP   N/A    N/A N/A N/A W3        29.96F
FALLBROOK        N/A     76  64  65 S6        29.95F
ESCONDIDO        N/A     74  63  67 S2        29.98F
SAN MARCOS       N/A     69  62  78 NW8       29.96F
POWAY            N/A     76  63  64 SW5       29.98F

$$

EAST SAN DIEGO COUNTY

CITY           SKY/WX    TMP DP  RH WIND       PRES   REMARKS
RAMONA         SUNNY     76  60  57 W12       29.99F
SANTEE LAKES     N/A     75  63  66 SW3       29.97F
LA MESA          N/A     72  61  69 W8        29.74F
JAMUL            N/A     76  64  65 NW5       29.96F
DESCANSO N       N/A     78  61  55 W6        29.81F
CAMPO            N/A     80  60  50 SW16      29.97F

$$

ORANGE COUNTY AND THE LOS ANGELES BASIN

CITY           SKY/WX    TMP DP  RH WIND       PRES   REMARKS
JOHN WAYNE AP  MOSUNNY   72  60  66 SW8       29.97F
LAKE FOREST FR   N/A     78  59  50 W3        29.86F
SANTA ANA        N/A     77  63  61 CALM      29.91F
HUNTINGTON BCH   N/A     71  64  77 W12       29.99F
LOS ALAMITOS   FAIR      73  61  66 SW12      29.96F
FULLERTON      SUNNY     77  60  55 SW9G16    29.95F
LONG BEACH     SUNNY     74  60  61 S8        29.96F
L.A. AP        CLOUDY    67  60  78 W13       29.98F
L.A. DOWNTOWN  PTSUNNY   71  60  68 VRB3      29.96F

$$

THE INLAND EMPIRE

CITY           SKY/WX    TMP DP  RH WIND       PRES   REMARKS
CORONA         CLOUDY    80  60  50 NW16      29.94S
CHINO          MOSUNNY   83  59  44 W13G20    29.95F
ONTARIO        MOSUNNY   84  58  40 W15G21    29.95F
SAN BERNARDINO MOSUNNY   86  52  30 SW12      29.94F
RIVERSIDE AP     N/A    N/A N/A N/A MISG      29.94F
MORENO VALLEY    N/A     88  61  39 W6        29.94F
MARCH ARB      SUNNY     85  58  38 NW15      29.95F
HORSETHIEF CYN   N/A     85  57  37 NW13      29.95F
PERRIS           N/A     86  58  38 NW8         N/A
MENIFEE          N/A     87  63  44 S6        29.98F
HEMET EAST       N/A     88  54  31 W6        29.95F
FRENCH VALLEY  FAIR      77  59  53 S10       29.96F
TEMECULA         N/A     80  62  53 SW7       29.89F

$$

SAN BERNARDINO AND RIVERSIDE COUNTY MOUNTAINS

CITY           SKY/WX    TMP DP  RH WIND       PRES   REMARKS
BIG BEAR AP    MOSUNNY   72  52  49 SW6       30.27F
ANGELUS OAKS     N/A     80  56  43 W2        29.75F
PINE COVE        N/A     73  54  52 NW2       29.85F

$$

SOUTHERN DESERT INCLUDING THE COACHELLA VALLEY

CITY           SKY/WX    TMP DP  RH WIND       PRES   REMARKS
PALM SPRINGS   MOSUNNY  104  57  21 N8        29.81F HX 103
THOUSAND PALMS   N/A    104  55  19 E3        29.77F HX 103
PALM DESERT      N/A    104  58  21 CALM      27.61S HX 104
THERMAL        SUNNY    104  43  12 VRB3      29.74F HX  99
BLYTHE         SUNNY    106  63  24 SE12      29.76F HX 109
IMPERIAL AP    SUNNY    105  50  15 E12       29.74F HX 102
EL CENTRO NAS  MOSUNNY  106  49  14 E12       29.76F HX 103
YUMA AZ        SUNNY    105  58  21 S13G18    29.77F HX 105
MEXICALI       MOSUNNY  104  36   9 SE12      29.77F HX  98

$$

UPPER DESERT

CITY           SKY/WX    TMP DP  RH WIND       PRES   REMARKS
VICTORVILLE AP MOSUNNY   97  45  16 S20G25    29.95F
HESPERIA         N/A     91  56  30 SW12      29.92F
APPLE VALLEY     N/A     92  52  25 SW14G25   30.02S
PALMDALE       SUNNY     94  43  17 SW23      29.94F
LANCASTER      SUNNY     94  45  18 SW17G26   29.94F
EDWARDS AFB    MOSUNNY   98  40  13 W21G30    29.90S
DAGGETT        PTSUNNY   99  47  17 W8        29.87F HX  95
29 PALMS N     MOSUNNY   91  59  33 N13       29.96S
NEEDLES        MOSUNNY  108  49  14 SW8       29.79F HX 104

$$

REGIONAL REPORTS

CITY           SKY/WX    TMP DP  RH WIND       PRES   REMARKS
SANTA BARBARA  SUNNY     71  58  63 SW8       29.96F
SANDBERG       SUNNY     86  37  17 S16G22    30.12F
LAS VEGAS NV   PTSUNNY   96  53  23 SE7       29.87F
PHOENIX AZ     MOSUNNY  103  55  20 W12       29.80F HX 101
TIJUANA        CLOUDY    68  57  68 W12       30.01F
ENSENADA NW      N/A     70  32  24 W6        29.96F

$$

OFFSHORE ISLANDS

CITY           SKY/WX    TMP DP  RH WIND       PRES   REMARKS
CATALINA ARPT  CLOUDY    61  57  87 SW12      30.02F FOG
SAN NICOLAS IS CLOUDY   N/A N/A N/A NW20      30.00F

$$

MARINE AND OFFSHORE BUOY REPORTS

STATION/POSITION SKY/WX   TEMP    WIND        PRES    SWELL
                          AIR SEA DIR/SP/G            HT/PER/DIR
                          (F)     (DEG/KT/KT) (MB)    (FT/S/D)
TANNER BANKS               63 64  320/ 14/ 17 1016.4F   3/180/14
S CLEMENTE BASIN           65 68  290/ 12/ 14 1015.7F   3/190/14
SAN NICOLAS IS.               65                N/A     2/210/14
SO. S. ROSA ISLA           63 65  310/ 17/ 21 1015.0F   3/14
W. S. BARBARA CH           61 60  310/ 19/ 21 1014.9F   2/220/13
M. S. BARBARA CH           63 64  270/ 14/ 17 1015.4F
S. MONICA BASIN            64 68  290/  6/ 10 1015.4F   2/200/14
S PEDRO CHANNEL               65                N/A     2/190/14
DANA POINT                    69                N/A     2/190/14
OCEANSIDE OFFSHR              69                N/A     2/210/15
TORREY PINES OTR              70                N/A     2/210/13
LA JOLLA 1                 68 71  300/  7/ 10 1015.8F
MISSION BAY BUOY              69                N/A     2/200/14
SAN DIEGO BAY                 70              1016.3F
POINT LOMA SOUTH              69                N/A     3/190/14

$$



USA.gov is the U.S. government's official web portal to all federal, state and local government web resources and services.